Location: ??
(35.5052°N, 139.7262°E)
Time: 00:18:58
(UTC+00:00)

IDEFIX/ARIANE 42P - Pass Details

Date: 20 June 2021
Orbit: 784 x 803 km, 98.4° (Epoch: 05 August)

Event Time Altitude Azimuth Distance (km) Brightness Sun altitude
Rises 16:49:58 0° 20° (NNE) 3,306 7.1 -23.8°
Reaches altitude 10° 16:52:24 10° 26° (NNE) 2,369 6.1 -23.6°
Maximum altitude 16:57:25 45° 99° (E) 1,064 3.3 -23.0°
Enters shadow 16:59:33 30° 152° (SSE) 1,395 3.6 -22.8°
